Regional Weather Roundup
Issued by NWS Kansas City/Pleasant Hill, MO

Home | Current Version | Previous Version | Graphics & Text | Print | Product List | Glossary Off
Versions: 1 2 3 4 5 6 7 8 9 10 11 12 13 14 15 16 17 18 19 20 21 22 23 24 25 26 27 28 29 30 31 32 33 34 35 36 37 38 39 40 41 42 43 44 45 46 47 48 49 50

000
ASUS43 KEAX 222010
RWREAX

WEATHER ROUNDUP FOR EASTERN KANSAS AND NORTHWEST MISSOURI
NATIONAL WEATHER SERVICE KANSAS CITY/PLEASANT HILL MO
300 PM CDT MON SEP 22 2014

KSZ040-057-103>105-MOZ028-029-037-043-222100-
...KANSAS CITY METROPOLITAN AREA...

CITY           SKY/WX    TMP DP  RH WIND       PRES   REMARKS
K.C. INTL      MOSUNNY   72  51  47 E5        30.27F
K.C. DOWNTOWN  SUNNY     74  50  42 CALM      30.25F
LEES SUMMIT    SUNNY     71  48  43 SE6       30.27F
OLATHE - IXD   SUNNY     71  51  49 VRB3      30.27F
OLATHE - OJC   SUNNY     72  53  51 CALM      30.26F
LAWRENCE       SUNNY     73  51  46 W6        30.26F

$$

MOZ001>008-011>017-020>025-030>033-038>040-044>046-053-054-222100-
...NORTHERN AND CENTRAL MISSOURI...

CITY           SKY/WX    TMP DP  RH WIND       PRES   REMARKS
ST. JOSEPH     SUNNY     74  50  42 S5        30.26F
MOSBY          CLEAR     72  48  43 SE5       30.26F
WHITEMAN AFB   MOSUNNY   72  51  47 VRB2      30.26F
CLINTON        SUNNY     72  54  53 CALM      30.27F
SEDALIA        SUNNY     74  50  42 NE8       30.27F
WARSAW         NOT AVBL
MARSHALL       SUNNY     75  50  41 CALM      30.27S
CHILLICOTHE      N/A     73  51  46 VRB3      30.28F
MOBERLY        SUNNY     73  45  35 CALM      30.27F
KIRKSVILLE     SUNNY     71  47  42 NE3       30.28F

$$

MOZ041-047>049-056>058-063>065-088>090-097-222100-
...EASTERN AND SOUTHERN MISSOURI...

CITY           SKY/WX    TMP DP  RH WIND       PRES   REMARKS
ST. LOUIS INTL SUNNY     74  49  41 N7        30.26F
SPIRIT OF STL  SUNNY     71  46  40 CALM      30.25F
COLUMBIA       SUNNY     72  48  42 E6        30.27F
JEFFERSON CITY SUNNY     73  47  39 S5        30.25F
MEXICO         SUNNY     75  50  41 CALM      30.26F
HANNIBAL       SUNNY     73  41  31 N3        30.27F
ROLLA          SUNNY     71  47  42 VRB6      30.25F
LEBANON        SUNNY     73  45  35 NE3       30.27F
OSAGE BEACH    SUNNY     72  46  40 E7        30.26F
SPRINGFIELD    SUNNY     73  49  42 E8        30.26F
BRANSON        MOSUNNY   75  50  41 NE6       30.26F
JOPLIN         SUNNY     73  51  46 VRB6      30.26F
WEST PLAINS    SUNNY     73  49  42 E7        30.26F

$$

IAZ060-094-KSZ022-034>040-054-083-096-NEZ052-066-093-222100-
...KANSAS...SOUTHEAST NEBRASKA AND IOWA...

CITY           SKY/WX    TMP DP  RH WIND       PRES   REMARKS
TOPEKA         SUNNY     74  48  39 CALM      30.26F
MANHATTAN      MOSUNNY   76  49  38 SE10      30.25F
EMPORIA        SUNNY     73  51  46 SE5       30.26F
CHANUTE        SUNNY     72  51  47 VRB3      30.26F
WICHITA        MOSUNNY   79  43  27 S9        30.24F
OMAHA          MOSUNNY   72  49  44 SE7       30.24F
LINCOLN        SUNNY     75  47  36 S7        30.24F
FALLS CITY     SUNNY     75  49  39 CALM      30.24F
LAMONI         SUNNY     71  50  47 CALM      30.27F
DES MOINES     MOSUNNY   72  49  44 CALM      30.25F

$$



USA.gov is the U.S. government's official web portal to all federal, state and local government web resources and services.